{"data":{"norad_id":47841,"intl_designator":"2021-018BG","name":"STARLINK-2433","alt_names":[],"object_type":"PAYLOAD","status":"ACTIVE","operator":null,"country":"US","launch_date":"2021-03-11","launch_site_code":"AFETR","launch_vehicle":null,"mission":null,"orbit_class":"UNKNOWN","rcs_meters":null,"size_class":null,"mass_kg":null,"dimensions":null,"purposes":["comms"],"wikipedia_slug":null,"has_3d_model":false,"image_url":null,"decayed_at":null,"tle_current":{"epoch":"2026-09-19T23:30:19.589760Z","epoch_age_seconds":74146,"freshness":"FRESH","line1":"1 47841U 21018BG  26262.97939340  .00004765  00000+0  16515-3 0  9990","line2":"2 47841  53.1583  54.8700 0001143  82.8777 277.2354 15.31715368306530","mean_motion":15.31715368,"eccentricity":0.0001143,"inclination_deg":53.1583,"raan_deg":54.87,"arg_perigee_deg":82.8777,"mean_anomaly_deg":277.2354,"bstar":0.00016515,"rev_number":30653,"period_min":94.012244708378,"perigee_km":469.91136299598,"apogee_km":471.47700580474,"semimajor_km":6848.8311844004,"source":"CELESTRAK","updated_at":"2026-09-20T09:00:38.753537Z"}}}